EW5647 Weather Reports


time (UTC)temp
C
wind
direction
speed
KPH
gust
KPH
rain 1hr
cm
rain 24hr
cm
rain mn
cm
humidity
%
barometer
mb
20260504001746 12 294 0.0 0.0 0.00 0.00 0.00 50 1013.4
20260504001243 13 296 0.0 1.6 0.00 0.00 0.00 51 1013.3
20260504000740 13 296 0.0 1.6 0.00 0.00 0.00 49 1013.3
20260504000237 12 294 1.6 1.6 0.00 0.00 0.00 52 1013.4
20260503235735 13 294 1.6 1.6 0.00 0.00 0.00 50 1013.5
20260503235232 13 302 0.0 1.6 0.00 0.00 0.00 48 1013.2
20260503234730 13 284 1.6 3.2 0.00 0.00 0.00 48 1013.6
20260503234228 13 292 3.2 3.2 0.00 0.00 0.00 48 1013.5
20260503233724 13 284 1.6 1.6 0.00 0.00 0.00 48 1013.6
20260503233219 13 290 3.2 4.8 0.00 0.00 0.00 48 1013.4
20260503232717 13 284 1.6 3.2 0.00 0.00 0.00 48 1013.6
20260503232214 13 294 1.6 1.6 0.00 0.00 0.00 48 1013.4
20260503231713 13 294 1.6 1.6 0.00 0.00 0.00 48 1013.4
20260503231208 13 294 3.2 3.2 0.00 0.00 0.00 47 1013.3
20260503230705 13 292 1.6 3.2 0.00 0.00 0.00 48 1013.4
20260503230203 13 299 1.6 3.2 0.00 0.00 0.00 47 1013.4
20260503225659 13 299 1.6 1.6 0.00 0.00 0.00 49 1013.5
20260503225154 13 319 1.6 1.6 0.00 0.00 0.00 47 1013.4
20260503224652 14 294 1.6 1.6 0.00 0.00 0.00 47 1013.5
20260503224149 14 296 0.0 1.6 0.00 0.00 0.00 45 1013.4
20260503223647 14 294 0.0 1.6 0.00 0.00 0.00 46 1013.5
20260503223143 14 302 1.6 1.6 0.00 0.00 0.00 45 1013.5
20260503222640 14 296 4.8 4.8 0.00 0.00 0.00 43 1013.4
20260503222138 14 300 1.6 3.2 0.00 0.00 0.00 44 1013.5
20260503221636 14 301 4.8 4.8 0.00 0.00 0.00 45 1013.6
20260503221133 14 296 1.6 1.6 0.00 0.00 0.00 43 1013.3
20260503220630 15 296 6.4 8.0 0.00 0.00 0.00 44 1013.4
20260503220126 15 294 1.6 1.6 0.00 0.00 0.00 43 1013.3
20260503215624 15 301 0.0 1.6 0.00 0.00 0.00 43 1013.3
20260503215120 15 302 3.2 3.2 0.00 0.00 0.00 44 1013.3
20260503214619 15 302 0.0 1.6 0.00 0.00 0.00 44 1013.5
20260503214115 15 299 4.8 4.8 0.00 0.00 0.00 43 1013.4
20260503213614 15 296 3.2 4.8 0.00 0.00 0.00 42 1013.5
20260503213110 15 294 3.2 3.2 0.00 0.00 0.00 46 1013.5
20260503212608 15 298 3.2 3.2 0.00 0.00 0.00 43 1013.5
20260503212105 15 294 6.4 8.0 0.00 0.00 0.00 44 1013.4
20260503211603 15 296 8.0 11.3 0.00 0.00 0.00 40 1013.3
20260503211057 15 296 1.6 4.8 0.00 0.00 0.00 42 1013.4
20260503210554 15 294 4.8 4.8 0.00 0.00 0.00 42 1013.3
20260503210050 15 294 1.6 1.6 0.00 0.00 0.00 45 1013.0
20260503205547 15 294 1.6 3.2 0.00 0.00 0.00 41 1013.2
20260503205043 15 302 3.2 8.0 0.00 0.00 0.00 43 1013.2
20260503204540 15 296 1.6 3.2 0.00 0.00 0.00 41 1013.3
20260503204037 15 295 1.6 1.6 0.00 0.00 0.00 43 1013.5
20260503203535 15 319 1.6 1.6 0.00 0.00 0.00 44 1013.4
20260503203032 14 299 1.6 1.6 0.00 0.00 0.00 46 1013.5
20260503202530 15 319 3.2 4.8 0.00 0.00 0.00 41 1013.6
20260503202027 15 303 1.6 3.2 0.00 0.00 0.00 42 1013.5
20260503201526 15 294 0.0 1.6 0.00 0.00 0.00 42 1013.5
20260503201022 15 294 1.6 1.6 0.00 0.00 0.00 44 1013.9
20260503200518 15 296 0.0 1.6 0.00 0.00 0.00 44 1013.8
20260503200015 15 302 1.6 1.6 0.00 0.00 0.00 42 1013.9
20260503195512 15 293 1.6 1.6 0.00 0.00 0.00 45 1013.9
20260503195009 15 293 1.6 3.2 0.00 0.00 0.00 44 1014.1
20260503194507 15 296 1.6 1.6 0.00 0.00 0.00 46 1013.9
20260503194006 15 296 1.6 1.6 0.00 0.00 0.00 43 1014.0
20260503193503 15 294 3.2 3.2 0.00 0.00 0.00 46 1014.3
20260503192958 14 303 3.2 3.2 0.00 0.00 0.00 45 1014.3
20260503192454 14 296 1.6 1.6 0.00 0.00 0.00 43 1014.4
20260503191950 14 303 1.6 1.6 0.00 0.00 0.00 47 1014.6
20260503191448 15 299 1.6 3.2 0.00 0.00 0.00 45 1014.3
20260503190944 15 302 0.0 1.6 0.00 0.00 0.00 45 1014.6
20260503190442 14 293 0.0 1.6 0.00 0.00 0.00 47 1014.6
20260503185938 14 321 1.6 3.2 0.00 0.00 0.00 48 1014.8
20260503185435 15 293 1.6 3.2 0.00 0.00 0.00 46 1015.0
20260503184934 15 293 3.2 4.8 0.00 0.00 0.00 42 1014.9
20260503184431 14 294 3.2 4.8 0.00 0.00 0.00 44 1014.9
20260503183927 15 301 0.0 1.6 0.00 0.00 0.00 45 1015.1
20260503183424 15 302 1.6 1.6 0.00 0.00 0.00 45 1015.0
20260503182921 15 294 3.2 3.2 0.00 0.00 0.00 46 1015.1
20260503182420 15 294 3.2 3.2 0.00 0.00 0.00 44 1015.1
20260503181917 15 323 3.2 3.2 0.00 0.00 0.00 45 1015.1
20260503181414 15 294 1.6 1.6 0.00 0.00 0.00 45 1015.0
20260503180910 14 294 1.6 3.2 0.00 0.00 0.00 44 1015.1
20260503180409 14 294 3.2 4.8 0.00 0.00 0.00 45 1015.3
20260503175904 14 294 1.6 1.6 0.00 0.00 0.00 43 1015.2
20260503175403 13 294 1.6 3.2 0.00 0.00 0.00 45 1015.3
20260503174858 14 294 1.6 3.2 0.00 0.00 0.00 46 1015.5
20260503174356 13 294 0.0 0.0 0.00 0.00 0.00 46 1015.7
20260503173851 13 294 4.8 4.8 0.00 0.00 0.00 46 1015.4
20260503173348 13 294 1.6 1.6 0.00 0.00 0.00 45 1015.7
20260503172844 14 299 6.4 8.0 0.00 0.00 0.00 43 1015.8
20260503172342 13 294 1.6 3.2 0.00 0.00 0.00 44 1015.7
20260503171837 14 296 1.6 1.6 0.00 0.00 0.00 44 1015.8
20260503171335 15 296 1.6 1.6 0.00 0.00 0.00 39 1015.7
20260503170832 15 302 4.8 4.8 0.00 0.00 0.00 45 1015.9
20260503170328 14 303 4.8 4.8 0.00 0.00 0.00 46 1015.7
20260503150721 12 319 1.6 1.6 0.00 0.00 0.00 47 1017.0
20260503150217 11 299 1.6 1.6 0.00 0.00 0.00 51 1017.1
20260503140141 10 296 3.2 3.2 0.00 0.00 0.00 56 1017.1
20260503131111 8 307 0.0 0.0 0.00 0.00 0.00 69 1017.5
20260503130609 7 304 0.0 0.0 0.00 0.00 0.00 73 1017.6
20260503130106 6 315 1.6 1.6 0.00 0.00 0.00 75 1017.6
20260503110458 1 316 0.0 0.0 0.00 0.00 0.00 97 1016.8
20260503090344 0 318 0.0 0.0 0.00 0.00 0.00 95 1016.7
20260503081311 0 318 0.0 0.0 0.00 0.00 0.00 93 1016.7
20260503080808 0 318 0.0 0.0 0.00 0.00 0.00 93 1016.7
20260503080305 1 318 0.0 0.0 0.00 0.00 0.00 93 1016.7
20260503072741 1 324 0.0 1.6 0.00 0.00 0.00 93 1016.6
20260503072238 1 314 0.0 1.6 0.00 0.00 0.00 93 1016.4
20260503071734 1 317 0.0 0.0 0.00 0.00 0.00 93 1016.5
20260503071231 1 317 0.0 0.0 0.00 0.00 0.00 93 1016.5
20260503070728 1 317 0.0 0.0 0.00 0.00 0.00 93 1016.4
20260503070226 1 317 0.0 0.0 0.00 0.00 0.00 94 1016.4
20260503060151 1 328 0.0 0.0 0.00 0.00 0.00 89 1016.9
20260503054638 2 328 0.0 0.0 0.00 0.00 0.00 88 1016.7
20260503054135 2 328 0.0 0.0 0.00 0.00 0.00 87 1017.0
20260503053633 2 328 0.0 0.0 0.00 0.00 0.00 87 1016.8
20260503053132 2 328 0.0 0.0 0.00 0.00 0.00 86 1016.8
20260503052627 2 328 0.0 0.0 0.00 0.00 0.00 86 1017.0
20260503052124 2 328 0.0 0.0 0.00 0.00 0.00 87 1017.0
20260503051619 2 328 0.0 0.0 0.00 0.00 0.00 87 1016.9
20260503051118 2 328 0.0 0.0 0.00 0.00 0.00 87 1017.1
20260503050614 2 328 0.0 0.0 0.00 0.00 0.00 87 1016.9
20260503050110 2 328 0.0 0.0 0.00 0.00 0.00 87 1017.0
20260503045608 2 328 0.0 0.0 0.00 0.00 0.00 87 1017.2
20260503045105 2 328 0.0 0.0 0.00 0.00 0.00 87 1017.4
20260503044601 2 328 0.0 0.0 0.00 0.00 0.00 86 1017.1
20260503044059 2 328 0.0 0.0 0.00 0.00 0.00 86 1017.2
20260503043555 2 328 0.0 0.0 0.00 0.00 0.00 86 1017.1
20260503043052 2 328 0.0 0.0 0.00 0.00 0.00 86 1016.8
20260503042549 2 328 0.0 0.0 0.00 0.00 0.00 86 1017.2
20260503042045 2 328 0.0 0.0 0.00 0.00 0.00 86 1017.0
20260503041542 2 328 0.0 0.0 0.00 0.00 0.00 86 1017.2
20260503041040 2 328 0.0 0.0 0.00 0.00 0.00 86 1017.2
20260503040537 2 328 0.0 0.0 0.00 0.00 0.00 86 1017.1
20260503040034 2 328 0.0 0.0 0.00 0.10 0.10 87 1017.3
20260503035531 3 328 0.0 0.0 0.00 0.10 0.10 87 1017.2
20260503035029 3 328 0.0 0.0 0.00 0.10 0.10 86 1017.2
20260503034525 3 328 0.0 0.0 0.00 0.10 0.10 86 1017.4
20260503034022 3 328 0.0 0.0 0.00 0.10 0.10 86 1017.3
20260503033520 2 318 0.0 0.0 0.00 0.10 0.10 86 1017.4
20260503033018 3 318 0.0 0.0 0.00 0.10 0.10 86 1017.1
20260503032516 3 318 0.0 0.0 0.00 0.10 0.10 85 1017.1
20260503032014 3 318 0.0 0.0 0.00 0.10 0.10 85 1017.6
20260503031511 3 318 0.0 0.0 0.00 0.10 0.10 85 1017.5
20260503031008 3 318 0.0 0.0 0.00 0.10 0.10 86 1017.4
20260503030504 3 318 0.0 0.0 0.00 0.10 0.10 86 1017.3
20260503030001 3 318 0.0 0.0 0.00 0.10 0.10 86 1017.6
20260503025458 3 318 0.0 0.0 0.00 0.10 0.10 86 1017.5
20260503024956 3 318 0.0 0.0 0.00 0.10 0.10 85 1017.5
20260503024451 3 318 0.0 0.0 0.00 0.10 0.10 85 1017.6
20260503023949 3 318 0.0 0.0 0.00 0.10 0.10 85 1017.7
20260503023446 3 318 0.0 0.0 0.00 0.10 0.10 85 1017.6
20260503022943 3 318 0.0 0.0 0.00 0.10 0.10 85 1017.6
20260503022437 3 318 0.0 0.0 0.00 0.10 0.10 85 1017.7
20260503021934 3 318 0.0 0.0 0.00 0.10 0.10 85 1017.6
20260503021430 3 318 0.0 0.0 0.00 0.10 0.10 84 1017.8
20260503020928 3 318 0.0 0.0 0.00 0.10 0.10 83 1017.6
20260503020425 3 318 0.0 0.0 0.00 0.10 0.10 83 1017.7
20260503015922 3 318 0.0 0.0 0.00 0.10 0.10 83 1017.7
20260503015418 3 318 0.0 0.0 0.00 0.10 0.10 82 1017.5
20260503014914 3 318 0.0 0.0 0.00 0.10 0.10 81 1017.5
20260503014412 3 318 0.0 0.0 0.00 0.10 0.10 81 1017.5
20260503013910 3 318 0.0 0.0 0.00 0.10 0.10 81 1017.6
20260503013406 3 318 0.0 0.0 0.00 0.10 0.10 81 1017.4
20260503012903 3 318 0.0 0.0 0.00 0.10 0.10 81 1017.3
20260503012401 3 318 0.0 0.0 0.00 0.10 0.10 79 1017.3
20260503011857 3 318 0.0 0.0 0.00 0.10 0.10 78 1017.4
20260503011355 3 318 0.0 0.0 0.00 0.10 0.10 78 1017.6
20260503010851 3 318 0.0 0.0 0.00 0.10 0.10 78 1017.6
20260503010348 3 318 0.0 0.0 0.00 0.10 0.10 78 1017.4
20260503005845 3 318 0.0 0.0 0.00 0.10 0.10 77 1017.4
20260503005343 3 318 0.0 0.0 0.00 0.10 0.10 77 1017.4
20260503004838 3 318 0.0 0.0 0.00 0.10 0.10 78 1017.4
20260503004336 4 318 0.0 0.0 0.00 0.10 0.10 78 1017.2
20260503003833 4 318 0.0 0.0 0.00 0.10 0.10 76 1017.7
20260503003330 4 318 0.0 0.0 0.00 0.10 0.10 75 1017.1
20260503002827 4 318 0.0 0.0 0.00 0.10 0.10 76 1017.4
20260503002324 4 318 0.0 0.0 0.00 0.10 0.10 74 1017.4